Flag for Norway Weather past 2 weeks in Sandefjord, Norway

41 °F

Quite cool.

Feels Like: 37 °F
Forecast: 48 / 51 °F
Wind: 6 mph from North

Location: Torp

Current Time: Oct 5, 2015 at 2:52:18 AM

Latest Report: Oct 5, 2015 at 2:20 AM

Visibility: N/A

Pressure: 29.98 "Hg

Humidity: 100%

Dew point: 41 °F

Location of SandefjordLocation

Historic Weather in Sandefjord — Graph


Sandefjord temperature yesterday

Maximum temperature yesterday: 59 °F (at 3:50 PM)
Minimum temperature yesterday: 39 °F (at 3:50 AM)
Average temperature yesterday: 48 °F

Past Weeks' High & Low Weather Summary

High64 °F (Sep 30, 2:20 PM)100% (Sep 21, 12:50 AM)30.72 "Hg (Sep 21, 12:50 AM)
Low39 °F (Oct 4, 3:50 AM)39% (Sep 27, 3:50 PM)29.62 "Hg (Sep 22, 8:50 AM)
Average52 °F82%30.09 "Hg
* Reported Sep 20 1:20 AM — Oct 5 1:50 AM, Sandefjord, Weather by CustomWeather, © 2015

Note: Actual official high and low records may vary slightly from our data, if they occured in-between our weather recording intervals... More about our weather records


Sandefjord weather history for previous 24 hours

Time TempWeatherWind HumidityBarometerVisibility
1:50 AM
Mon, Oct 5
43 °FQuite cool.6 mph100%29.98 "HgN/A
1:20 AM43 °FQuite cool.6 mph100%29.98 "HgN/A
12:50 AM43 °FQuite cool.5 mph100%29.98 "HgN/A
12:20 AM43 °FQuite cool.5 mph100%29.98 "HgN/A
11:50 PM
Sun, Oct 4
41 °FFog.5 mph100%29.98 "Hg2 mi
11:20 PM43 °FClear.2 mph100%29.98 "Hg10 mi
10:50 PM46 °FClear.2 mph93%29.95 "Hg10 mi
10:20 PM46 °FClear.2 mph100%29.95 "Hg10 mi
9:50 PM46 °FClear.2 mph93%29.95 "Hg10 mi
9:20 PM46 °FClear.2 mph100%29.95 "Hg10 mi
8:50 PM46 °FClear.2 mph93%29.95 "Hg10 mi
8:20 PM48 °FClear.1 mph87%29.95 "Hg10 mi
7:50 PM48 °FClear.1 mph94%29.95 "Hg10 mi
7:20 PM48 °FSunny.No wind94%29.92 "Hg10 mi
6:50 PM52 °FSunny.2 mph82%29.92 "Hg10 mi
6:20 PM54 °FSunny.3 mph77%29.92 "Hg10 mi
5:50 PM55 °FSunny.2 mph67%29.92 "Hg10 mi
5:20 PM57 °FPassing clouds.3 mph63%29.92 "HgN/A
4:50 PM57 °FSunny.2 mph67%29.89 "Hg10 mi
4:20 PM59 °FSunny.1 mph59%29.89 "Hg10 mi
3:50 PM59 °FPassing clouds.3 mph59%29.89 "HgN/A
3:20 PM57 °FPassing clouds.3 mph63%29.89 "HgN/A
2:50 PM57 °FSunny.2 mph67%29.92 "Hg10 mi
2:20 PM57 °FSunny.1 mph55%29.92 "Hg10 mi
1:50 PM57 °FSunny.2 mph63%29.92 "Hg10 mi
1:20 PM57 °FSunny.1 mph63%29.92 "Hg10 mi
12:50 PM54 °FSunny.2 mph72%29.92 "Hg10 mi
12:20 PM54 °FSunny.1 mph72%29.92 "Hg10 mi
11:50 AM52 °FSunny.2 mph77%29.92 "Hg10 mi
11:20 AM50 °FSunny.1 mph82%29.92 "Hg10 mi
10:50 AM48 °FSunny.No wind87%29.92 "Hg10 mi
10:20 AM50 °FSunny.5 mph88%29.92 "Hg10 mi
9:50 AM46 °FPassing clouds.2 mph93%29.92 "HgN/A
9:20 AM43 °FSunny.2 mph100%29.89 "Hg10 mi
8:50 AM39 °FSunny.3 mph100%29.89 "Hg10 mi
8:20 AM39 °FPassing clouds.5 mph100%29.89 "HgN/A
7:50 AM39 °FFog.3 mph100%29.89 "HgN/A
7:20 AM39 °FFog.3 mph100%29.89 "HgN/A
6:50 AM39 °FFog.3 mph100%29.86 "HgN/A
6:20 AM41 °FFog.5 mph100%29.86 "HgN/A
5:50 AM41 °FFog.5 mph93%29.86 "HgN/A
5:20 AM41 °FFog.2 mph100%29.86 "Hg0 mi
4:50 AM39 °FFog.5 mph100%29.89 "Hg0 mi
4:20 AM41 °FFog.2 mph100%29.89 "Hg0 mi
3:50 AM39 °FFog.1 mph100%29.89 "Hg0 mi
3:20 AM41 °FFog.No wind100%29.89 "Hg0 mi
2:50 AM45 °FFog.1 mph100%29.89 "Hg0 mi
2:20 AM46 °FCool.5 mph100%29.89 "Hg3 mi
Weather by CustomWeather, © 2015

See weather overviewHow to use our weather pages